Regional Weather Roundup
Issued by NWS Upton, NY

Current Version | Previous Version | Text Only | Print | Product List | Glossary On
Versions: 1 2 3 4 5 6 7 8 9 10 11 12 13 14 15 16 17 18 19 20 21 22 23 24 25 26 27 28 29 30 31 32 33 34 35 36 37 38 39 40 41 42 43 44 45 46 47 48 49 50
000
ASUS41 KOKX 191108
RWROKX

REGIONAL WEATHER ROUNDUP
NATIONAL WEATHER SERVICE NEW YORK NY
600 AM EST THU JAN 19 2017

NOTE: "FAIR" INDICATES FEW OR NO CLOUDS BELOW 12,000 FEET WITH NO
SIGNIFICANT WEATHER AND/OR OBSTRUCTIONS TO VISIBILITY.

NYZ071-072-176-178-NJZ106-104-191200-
NEW YORK CITY METRO AREA

CITY           SKY/WX    TMP DP  RH WIND       PRES   REMARKS
Central Park   PTCLDY    41  36  82 W5        30.04S
Wall St Helipt PTSUNNY   40  37  89 SW5       30.03F
Bronx Bot Gard NOT AVBL
LaGuardia APRT CLOUDY    44  36  73 CALM      30.02S
Kennedy INTL   MOCLDY    38  34  85 SW5       30.03S WCI  34
Breezy Point     N/A     39 N/A N/A W3          N/A
Newark/Liberty MOCLDY    40  37  89 CALM      30.02S
Teterboro      CLEAR     36  34  92 CALM      30.01F
$$

NYZ177-179-078>081-191200-
LONG ISLAND NEW YORK

CITY           SKY/WX    TMP DP  RH WIND       PRES   REMARKS
Jones Beach      N/A     39 N/A N/A MISG        N/A
Matinecock PT  NOT AVBL
Farmingdale    PTCLDY    35  34  96 CALM      30.02S FOG
MacArthur/ISP  MOCLDY    36  36 100 CALM      30.01F
Shirley        PTCLDY    33  33 100 CALM      30.02S FOG
Westhampton    CLOUDY    33  31  92 CALM      30.03S FOG
Southampton    NOT AVBL
Bridgehampton  NOT AVBL
East Hampton   CLOUDY    36  35  96 CALM      30.01S
Montauk          N/A     38  36  92 NW5       30.02R WCI  34
$$

NYZ052-065-067-191200-
HUDSON VALLEY

CITY           SKY/WX    TMP DP  RH WIND       PRES   REMARKS
White Plains   CLOUDY    34  31  88 CALM      30.00R
Newburgh       PTCLDY    34  34 100 W8        30.01R WCI  27
Montgomery     CLOUDY    33  32  96 W6        30.00R FOG     WCI  28
Poughkeepsie   CLOUDY    32  32 100 CALM      30.01R FOG
Albany         CLOUDY    36  34  92 CALM      30.02R
$$

NJZ001-105-106-008-010-013-015-019>022-104-191200-
NEW JERSEY

CITY           SKY/WX    TMP DP  RH WIND       PRES   REMARKS
Newark/Liberty MOCLDY    40  37  89 CALM      30.02S
Teterboro      CLEAR     36  34  92 CALM      30.01F
Caldwell       CLEAR     33  32  96 CALM      30.02F FOG
Somerville     FOG       36  34  92 CALM      30.01S VSB 3/4
Linden         CLOUDY    39  36  91 CALM      30.03S
Sussex         FOG       32  32 100 CALM      30.01S VSB 1/4
Andover          N/A     34  33  96 CALM      30.01S
Trenton        PTCLDY    39  37  92 W3        30.02S
Millville      CLOUDY    41  40  96 W3        30.05S
Atlantic City  CLOUDY    39  37  92 CALM      30.05R
Wrightstown    MOCLDY    37  35  92 SW5       30.01S WCI  33
Toms River     CLOUDY    38  37  97 CALM      30.05R
Belmar         CLOUDY    38  37  97 SW3       30.04S
$$

PAZ047>061-062-071-191200-
EASTERN PENNSYLVANIA

CITY           SKY/WX    TMP DP  RH WIND       PRES   REMARKS
Philadelphia   CLOUDY    45  36  70 NW5       30.06S
Allentown      CLEAR     39  33  79 W5        30.03R
Scranton       CLOUDY    37  37 100 SW3       30.00S FOG
$$

CTZ002-004>006-009-010-012-RIZ004-006-007-MAZ004-011-015-191200-
SOUTHERN NEW ENGLAND
 IN CT

CITY           SKY/WX    TMP DP  RH WIND       PRES   REMARKS
Bradley INTL   CLOUDY    33  32  96 CALM      30.01R
Hartford       CLOUDY    33  32  96 SE3       30.02R FOG
Danbury        FOG       33  32  96 CALM      30.01S VSB 1/2
Wtrbury/Oxford FOG       34  30  86 CALM      30.00R VSB 1/4
Bridgeport     CLOUDY    38  34  85 CALM      30.02S
Meriden        MOCLDY    34  31  88 CALM      30.02R FOG
New Haven      CLOUDY    34  32  92 CALM      30.01S
Chester        CLOUDY    34  34 100 CALM      30.00R
Groton         CLOUDY    36  34  92 CALM      30.01R
Wilimantic     CLOUDY    36  34  92 CALM      30.01R FOG

 IN RI

CITY           SKY/WX    TMP DP  RH WIND       PRES   REMARKS
Providence     CLOUDY    35  32  88 CALM      30.01S
Block Island   NOT AVBL
Westerly       CLOUDY    37  33  85 CALM      30.01S
 IN MA

CITY           SKY/WX    TMP DP  RH WIND       PRES   REMARKS
Boston         CLOUDY    33  31  92 NW5       30.01S WCI  29
Worcester      CLOUDY    31  29  92 SW8       29.95R WCI  23
Westfield      CLOUDY    33  33 100 SE3       29.99S FOG
Provincetown   CLOUDY    38  37  97 NW9       29.99S WCI  31
Nantucket      CLOUDY    39  36  89 N12       29.98R WCI  32
$$

ANZ330-335-338-340-345-350-353-355-191200-
COASTAL MARINE OBSERVATIONS


STATION/POSITION TIME  SKY/WX   TEMP    WIND        PRES    VSBY  WAVE
                                AIR SEA DIR/SP/G                  HT/PER
                 (UTC)          (F)     (DEG/KT/KT) (MB)    (MI)  (FT/S)
NY HARB ENTRANCE 0950            42 44  310/  4/  6 1016.8          4/ 8
20 S FIRE ISLAND 1050            40 45  350/  6/  8 1016.4          6/ 9
GREAT SOUTH BAY  NOT AVBL
23 SSW MONTAUK P 0950            40 48  330/  8/ 10 1016.6          6/ 9
15 E BARNEGAT LI 1030               48                N/A           6/ 8
HUDSON CANYON    0950            46 51              1015.9          8/ 9
KINGS POINT      1048            38 38              1016.4
EXECUTION ROCKS  1045            38     210/  4/  6   N/A
CENTRAL LI SOUND 1030            38     280/  4/  4   N/A           0
EASTERN LI SOUND NOT AVBL
ROBBINS REEF     1048            40     260/  3/  4 1016.9
$$


>>>>>>>>>>>>>>>>>>>>>>>>>>>> KEY <<<<<<<<<<<<<<<<<<<<<<<<<<<
>                                                          <
>     SKY/WX - Sky Condition/Present Weather               <
>     TMP    - Temperature in Fahrenheit                   <
>     DP     - Dew Point in Fahrenheit                     <
>     RH     - Relative Humidity in Percent                <
>     WIND   - Direction (from) and Speed in MPH           <
>     PRES   - Mean Sea Level Pressure (inches of Hg)      <
>     WCI    - Wind Chill Index                            <
>     VSB    - VISIBILITY IN MILES                         <
>     HX     - HEAT INDEX                                  <
>     TC     - TEMPERATURE IN CELSIUS                      <
>     VRB    - VARIABLE WIND DIRECTION                     <
>                                                          <
>>>>>>>>>>>>>>>>>>>>>>>>>>>> KEY <<<<<<<<<<<<<<<<<<<<<<<<<<<



USA.gov is the U.S. government's official web portal to all federal, state and local government web resources and services.